Time,TemperatureF,DewpointF,PressureIn,WindDirection,WindDirectionDegrees,WindSpeedMPH,WindSpeedGustMPH,Humidity,HourlyPrecipIn,Conditions,Clouds,dailyrainin,SolarRadiationWatts/m^2,SoftwareType,DateUTC
2013-03-01 00:03:00,52.4,47.4,30.44,ESE,108,0.0,4.0,83,0.00,,,0.00,0,Wunderground v.1.15,2013-03-01 08:03:00,
2013-03-01 00:09:00,52.4,47.4,30.44,ESE,108,0.0,4.0,83,0.00,,,0.00,0,Wunderground v.1.15,2013-03-01 08:09:00,
2013-03-01 00:14:00,52.4,47.4,30.44,ESE,108,0.0,0.0,83,0.00,,,0.00,0,Wunderground v.1.15,2013-03-01 08:14:00,
2013-03-01 00:20:00,52.4,47.4,30.44,ESE,108,0.0,0.0,83,0.00,,,0.00,0,Wunderground v.1.15,2013-03-01 08:20:00,
2013-03-01 00:26:00,52.4,47.7,30.44,ESE,109,1.0,1.0,84,0.00,,,0.00,0,Wunderground v.1.15,2013-03-01 08:26:00,
2013-03-01 00:32:00,52.5,47.8,30.44,ESE,107,1.0,2.0,84,0.00,,,0.00,0,Wunderground v.1.15,2013-03-01 08:32:00,
2013-03-01 00:38:00,52.5,47.8,30.45,ESE,104,2.0,2.0,84,0.00,,,0.00,0,Wunderground v.1.15,2013-03-01 08:38:00,
2013-03-01 00:43:00,52.5,47.8,30.45,East,97,0.0,1.0,84,0.00,,,0.00,0,Wunderground v.1.15,2013-03-01 08:43:00,
2013-03-01 00:48:00,52.0,47.3,30.45,East,97,0.0,1.0,84,0.00,,,0.00,0,Wunderground v.1.15,2013-03-01 08:48:00,
2013-03-01 00:54:00,51.8,47.1,30.45,East,97,0.0,0.0,84,0.00,,,0.00,0,Wunderground v.1.15,2013-03-01 08:54:00,
2013-03-01 01:00:00,51.7,47.3,30.45,East,97,0.0,0.0,85,0.00,,,0.00,0,Wunderground v.1.15,2013-03-01 09:00:00,
2013-03-01 01:08:00,51.6,47.5,30.45,East,89,0.0,5.0,86,0.00,,,0.00,0,Wunderground v.1.15,2013-03-01 09:08:00,
2013-03-01 01:13:00,51.5,47.5,30.45,East,100,0.0,1.0,86,0.00,,,0.00,0,Wunderground v.1.15,2013-03-01 09:13:00,
2013-03-01 01:19:00,51.4,47.4,30.45,East,100,0.0,1.0,86,0.00,,,0.00,0,Wunderground v.1.15,2013-03-01 09:19:00,
2013-03-01 01:25:00,51.2,47.2,30.45,East,100,0.0,0.0,86,0.00,,,0.00,0,Wunderground v.1.15,2013-03-01 09:25:00,
2013-03-01 01:30:00,51.1,47.4,30.45,East,100,1.0,1.0,87,0.00,,,0.00,0,Wunderground v.1.15,2013-03-01 09:30:00,
2013-03-01 01:36:00,51.3,47.3,30.45,East,101,0.0,2.0,86,0.00,,,0.00,0,Wunderground v.1.15,2013-03-01 09:36:00,
2013-03-01 01:41:00,51.3,47.3,30.45,East,100,0.0,0.0,86,0.00,,,0.00,0,Wunderground v.1.15,2013-03-01 09:41:00,
2013-03-01 01:46:00,51.0,47.0,30.45,ESE,102,0.0,1.0,86,0.00,,,0.00,0,Wunderground v.1.15,2013-03-01 09:46:00,
2013-03-01 01:52:00,50.7,47.0,30.45,ESE,102,0.0,0.0,87,0.00,,,0.00,0,Wunderground v.1.15,2013-03-01 09:52:00,
2013-03-01 01:57:00,50.4,46.7,30.45,ESE,102,0.0,0.0,87,0.00,,,0.00,0,Wunderground v.1.15,2013-03-01 09:57:00,
2013-03-01 02:03:00,50.3,46.9,30.44,ESE,102,0.0,3.0,88,0.00,,,0.00,0,Wunderground v.1.15,2013-03-01 10:03:00,
2013-03-01 02:08:00,50.2,46.8,30.44,ESE,102,0.0,3.0,88,0.00,,,0.00,0,Wunderground v.1.15,2013-03-01 10:08:00,
2013-03-01 02:13:00,50.0,46.6,30.44,ESE,102,0.0,0.0,88,0.00,,,0.00,0,Wunderground v.1.15,2013-03-01 10:13:00,
2013-03-01 02:19:00,49.9,46.5,30.44,East,100,0.0,0.0,88,0.00,,,0.00,0,Wunderground v.1.15,2013-03-01 10:19:00,
2013-03-01 02:24:00,49.8,46.7,30.44,East,100,0.0,0.0,89,0.00,,,0.00,0,Wunderground v.1.15,2013-03-01 10:24:00,
2013-03-01 02:30:00,49.8,46.4,30.44,East,99,0.0,0.0,88,0.00,,,0.00,0,Wunderground v.1.15,2013-03-01 10:30:00,
2013-03-01 02:35:00,49.9,46.8,30.44,ESE,102,1.0,1.0,89,0.00,,,0.00,0,Wunderground v.1.15,2013-03-01 10:35:00,
2013-03-01 02:41:00,49.8,46.7,30.44,East,100,2.0,2.0,89,0.00,,,0.00,0,Wunderground v.1.15,2013-03-01 10:41:00,
2013-03-01 02:46:00,49.6,46.5,30.44,ESE,111,0.0,2.0,89,0.00,,,0.00,0,Wunderground v.1.15,2013-03-01 10:46:00,
2013-03-01 02:52:00,49.5,46.4,30.44,ESE,107,0.0,0.0,89,0.00,,,0.00,0,Wunderground v.1.15,2013-03-01 10:52:00,
2013-03-01 02:57:00,49.5,46.7,30.44,ESE,106,2.0,2.0,90,0.00,,,0.00,0,Wunderground v.1.15,2013-03-01 10:57:00,
2013-03-01 03:02:00,49.5,46.7,30.43,ESE,112,2.0,2.0,90,0.00,,,0.00,0,Wunderground v.1.15,2013-03-01 11:02:00,
2013-03-01 03:08:00,49.6,46.5,30.43,ESE,109,0.0,2.0,89,0.00,,,0.00,0,Wunderground v.1.15,2013-03-01 11:08:00,
2013-03-01 03:13:00,49.5,46.4,30.44,ESE,109,0.0,0.0,89,0.00,,,0.00,0,Wunderground v.1.15,2013-03-01 11:13:00,
2013-03-01 03:18:00,49.5,46.4,30.44,ESE,106,0.0,1.0,89,0.00,,,0.00,0,Wunderground v.1.15,2013-03-01 11:18:00,
2013-03-01 03:24:00,49.3,46.2,30.44,ESE,111,1.0,1.0,89,0.00,,,0.00,0,Wunderground v.1.15,2013-03-01 11:24:00,
2013-03-01 03:30:00,49.3,46.2,30.44,East,90,0.0,0.0,89,0.00,,,0.00,0,Wunderground v.1.15,2013-03-01 11:30:00,
2013-03-01 03:35:00,49.0,46.2,30.44,East,90,0.0,0.0,90,0.00,,,0.00,0,Wunderground v.1.15,2013-03-01 11:35:00,
2013-03-01 03:40:00,48.8,46.0,30.44,East,90,0.0,0.0,90,0.00,,,0.00,0,Wunderground v.1.15,2013-03-01 11:40:00,
2013-03-01 03:46:00,48.8,46.3,30.44,East,90,0.0,0.0,91,0.00,,,0.00,0,Wunderground v.1.15,2013-03-01 11:46:00,
2013-03-01 03:52:00,48.9,46.1,30.44,East,90,0.0,0.0,90,0.00,,,0.00,0,Wunderground v.1.15,2013-03-01 11:52:00,
2013-03-01 03:58:00,48.7,45.9,30.44,East,90,0.0,0.0,90,0.00,,,0.00,0,Wunderground v.1.15,2013-03-01 11:58:00,
2013-03-01 04:03:00,48.4,45.9,30.44,East,90,0.0,4.0,91,0.00,,,0.00,0,Wunderground v.1.15,2013-03-01 12:03:00,
2013-03-01 04:08:00,48.4,45.9,30.44,East,90,0.0,4.0,91,0.00,,,0.00,0,Wunderground v.1.15,2013-03-01 12:08:00,
2013-03-01 04:14:00,48.5,45.7,30.44,East,90,0.0,0.0,90,0.00,,,0.00,0,Wunderground v.1.15,2013-03-01 12:14:00,
2013-03-01 04:19:00,48.2,45.7,30.44,East,90,0.0,0.0,91,0.00,,,0.00,0,Wunderground v.1.15,2013-03-01 12:19:00,
2013-03-01 04:25:00,48.0,45.5,30.44,East,90,0.0,0.0,91,0.00,,,0.00,0,Wunderground v.1.15,2013-03-01 12:25:00,
2013-03-01 04:30:00,47.8,45.3,30.44,East,90,0.0,0.0,91,0.00,,,0.00,0,Wunderground v.1.15,2013-03-01 12:30:00,
2013-03-01 04:35:00,47.6,45.4,30.44,East,90,0.0,0.0,92,0.00,,,0.00,0,Wunderground v.1.15,2013-03-01 12:35:00,
2013-03-01 04:41:00,47.5,45.3,30.44,East,90,0.0,0.0,92,0.00,,,0.00,0,Wunderground v.1.15,2013-03-01 12:41:00,
2013-03-01 04:47:00,47.6,45.4,30.44,East,90,0.0,0.0,92,0.00,,,0.00,0,Wunderground v.1.15,2013-03-01 12:47:00,
2013-03-01 04:53:00,47.8,45.6,30.44,East,90,0.0,0.0,92,0.00,,,0.00,0,Wunderground v.1.15,2013-03-01 12:53:00,
2013-03-01 04:58:00,47.5,45.0,30.44,East,90,0.0,0.0,91,0.00,,,0.00,0,Wunderground v.1.15,2013-03-01 12:58:00,
2013-03-01 05:04:00,47.2,45.0,30.45,East,90,0.0,0.0,92,0.00,,,0.00,0,Wunderground v.1.15,2013-03-01 13:04:00,
2013-03-01 05:09:00,47.1,45.2,30.44,East,90,0.0,0.0,93,0.00,,,0.00,0,Wunderground v.1.15,2013-03-01 13:09:00,
2013-03-01 05:15:00,47.1,45.2,30.45,East,90,0.0,0.0,93,0.00,,,0.00,0,Wunderground v.1.15,2013-03-01 13:15:00,
2013-03-01 05:21:00,47.0,45.1,30.45,East,90,0.0,0.0,93,0.00,,,0.00,0,Wunderground v.1.15,2013-03-01 13:21:00,
2013-03-01 05:27:00,47.0,45.1,30.45,East,91,0.0,0.0,93,0.00,,,0.00,0,Wunderground v.1.15,2013-03-01 13:27:00,
2013-03-01 05:32:00,47.1,45.2,30.45,East,91,0.0,0.0,93,0.00,,,0.00,0,Wunderground v.1.15,2013-03-01 13:32:00,
2013-03-01 05:38:00,47.1,44.9,30.45,East,91,0.0,0.0,92,0.00,,,0.00,0,Wunderground v.1.15,2013-03-01 13:38:00,
2013-03-01 05:44:00,46.9,44.7,30.45,East,82,0.0,1.0,92,0.00,,,0.00,0,Wunderground v.1.15,2013-03-01 13:44:00,
2013-03-01 05:50:00,46.4,44.8,30.45,East,82,0.0,0.0,94,0.00,,,0.00,0,Wunderground v.1.15,2013-03-01 13:50:00,
2013-03-01 05:56:00,46.1,44.5,30.45,East,82,0.0,0.0,94,0.00,,,0.00,0,Wunderground v.1.15,2013-03-01 13:56:00,
2013-03-01 06:01:00,45.5,43.9,30.46,East,82,0.0,0.0,94,0.00,,,0.00,0,Wunderground v.1.15,2013-03-01 14:01:00,
2013-03-01 06:08:00,45.2,44.4,30.45,East,81,0.0,0.0,97,0.00,,,0.00,0,Wunderground v.1.15,2013-03-01 14:08:00,
2013-03-01 06:14:00,45.4,44.3,30.46,East,81,0.0,0.0,96,0.00,,,0.00,0,Wunderground v.1.15,2013-03-01 14:14:00,
2013-03-01 06:19:00,45.5,44.4,30.46,East,81,0.0,0.0,96,0.00,,,0.00,0,Wunderground v.1.15,2013-03-01 14:19:00,
2013-03-01 06:25:00,45.4,44.1,30.46,East,81,0.0,0.0,95,0.00,,,0.00,0,Wunderground v.1.15,2013-03-01 14:25:00,
2013-03-01 06:31:00,44.9,43.6,30.46,East,80,0.0,0.0,95,0.00,,,0.00,0,Wunderground v.1.15,2013-03-01 14:31:00,
2013-03-01 06:36:00,44.8,44.0,30.46,East,80,0.0,0.0,97,0.00,,,0.00,0,Wunderground v.1.15,2013-03-01 14:36:00,
2013-03-01 06:42:00,45.1,44.3,30.46,East,82,0.0,0.0,97,0.00,,,0.00,0,Wunderground v.1.15,2013-03-01 14:42:00,
2013-03-01 06:47:00,45.1,44.0,30.46,East,86,0.0,0.0,96,0.00,,,0.00,0,Wunderground v.1.15,2013-03-01 14:47:00,
2013-03-01 06:53:00,45.1,44.0,30.46,East,97,0.0,1.0,96,0.00,,,0.00,0,Wunderground v.1.15,2013-03-01 14:53:00,
2013-03-01 06:59:00,45.3,44.2,30.46,East,97,0.0,1.0,96,0.00,,,0.00,0,Wunderground v.1.15,2013-03-01 14:59:00,
2013-03-01 07:08:00,45.9,44.5,30.46,ESE,119,0.0,2.0,95,0.00,,,0.00,0,Wunderground v.1.15,2013-03-01 15:08:00,
2013-03-01 07:13:00,46.1,44.5,30.46,ESE,116,0.0,1.0,94,0.00,,,0.00,0,Wunderground v.1.15,2013-03-01 15:13:00,
2013-03-01 07:19:00,45.9,44.3,30.46,ESE,115,0.0,1.0,94,0.00,,,0.00,0,Wunderground v.1.15,2013-03-01 15:19:00,
2013-03-01 07:25:00,46.0,44.4,30.46,ESE,115,0.0,0.0,94,0.00,,,0.00,0,Wunderground v.1.15,2013-03-01 15:25:00,
2013-03-01 07:31:00,46.7,45.1,30.46,ESE,115,0.0,0.0,94,0.00,,,0.00,0,Wunderground v.1.15,2013-03-01 15:31:00,
2013-03-01 07:37:00,47.5,45.6,30.46,ESE,115,0.0,0.0,93,0.00,,,0.00,0,Wunderground v.1.15,2013-03-01 15:37:00,
2013-03-01 07:43:00,48.4,46.5,30.46,ESE,115,0.0,0.0,93,0.00,,,0.00,0,Wunderground v.1.15,2013-03-01 15:43:00,
2013-03-01 07:49:00,49.0,46.5,30.45,ESE,115,0.0,1.0,91,0.00,,,0.00,0,Wunderground v.1.15,2013-03-01 15:49:00,
2013-03-01 07:55:00,49.7,46.6,30.45,ESE,113,2.0,2.0,89,0.00,,,0.00,0,Wunderground v.1.15,2013-03-01 15:55:00,
2013-03-01 08:01:00,50.5,47.1,30.46,ESE,122,1.0,2.0,88,0.00,,,0.00,0,Wunderground v.1.15,2013-03-01 16:01:00,
2013-03-01 08:08:00,51.5,47.8,30.46,ESE,118,1.0,2.0,87,0.00,,,0.00,0,Wunderground v.1.15,2013-03-01 16:08:00,
2013-03-01 08:13:00,52.1,48.3,30.46,SE,144,1.0,2.0,87,0.00,,,0.00,0,Wunderground v.1.15,2013-03-01 16:13:00,
2013-03-01 08:18:00,52.8,48.7,30.46,ESE,123,1.0,2.0,86,0.00,,,0.00,0,Wunderground v.1.15,2013-03-01 16:18:00,
2013-03-01 08:23:00,53.4,49.0,30.45,ESE,123,0.0,2.0,85,0.00,,,0.00,0,Wunderground v.1.15,2013-03-01 16:23:00,
2013-03-01 08:29:00,54.0,48.3,30.45,ESE,110,2.0,4.0,81,0.00,,,0.00,0,Wunderground v.1.15,2013-03-01 16:29:00,
2013-03-01 08:35:00,54.8,49.7,30.45,SE,132,1.0,1.0,83,0.00,,,0.00,0,Wunderground v.1.15,2013-03-01 16:35:00,
2013-03-01 08:40:00,55.5,49.4,30.45,ESE,118,0.0,0.0,80,0.00,,,0.00,0,Wunderground v.1.15,2013-03-01 16:40:00,
2013-03-01 08:46:00,56.2,50.1,30.45,ESE,116,0.0,2.0,80,0.00,,,0.00,0,Wunderground v.1.15,2013-03-01 16:46:00,
2013-03-01 08:51:00,56.6,50.5,30.45,NNE,26,0.0,0.0,80,0.00,,,0.00,0,Wunderground v.1.15,2013-03-01 16:51:00,
2013-03-01 08:57:00,57.1,51.0,30.45,NNE,18,0.0,1.0,80,0.00,,,0.00,0,Wunderground v.1.15,2013-03-01 16:57:00,
2013-03-01 09:03:00,57.6,51.1,30.45,NNW,334,1.0,3.0,79,0.00,,,0.00,0,Wunderground v.1.15,2013-03-01 17:03:00,
2013-03-01 09:08:00,57.9,51.8,30.45,NW,315,2.0,3.0,80,0.00,,,0.00,0,Wunderground v.1.15,2013-03-01 17:08:00,
2013-03-01 09:14:00,58.1,50.9,30.45,NW,304,3.0,3.0,77,0.00,,,0.00,0,Wunderground v.1.15,2013-03-01 17:14:00,
2013-03-01 09:20:00,58.5,51.3,30.44,NW,310,3.0,3.0,77,0.00,,,0.00,0,Wunderground v.1.15,2013-03-01 17:20:00,
2013-03-01 09:26:00,58.8,51.6,30.44,NW,326,0.0,3.0,77,0.00,,,0.00,0,Wunderground v.1.15,2013-03-01 17:26:00,
2013-03-01 09:32:00,59.0,51.8,30.44,North,357,0.0,0.0,77,0.00,,,0.00,0,Wunderground v.1.15,2013-03-01 17:32:00,
2013-03-01 09:37:00,59.2,52.0,30.44,NW,317,1.0,4.0,77,0.00,,,0.00,0,Wunderground v.1.15,2013-03-01 17:37:00,
2013-03-01 09:43:00,59.4,51.5,30.44,NW,317,0.0,1.0,75,0.00,,,0.00,0,Wunderground v.1.15,2013-03-01 17:43:00,
2013-03-01 09:49:00,59.8,52.2,30.43,WSW,243,0.0,1.0,76,0.00,,,0.00,0,Wunderground v.1.15,2013-03-01 17:49:00,
2013-03-01 09:55:00,60.2,52.2,30.43,NW,321,3.0,3.0,75,0.00,,,0.00,0,Wunderground v.1.15,2013-03-01 17:55:00,
2013-03-01 10:01:00,60.3,51.6,30.43,North,4,1.0,4.0,73,0.00,,,0.00,0,Wunderground v.1.15,2013-03-01 18:01:00,
2013-03-01 10:08:00,60.5,52.2,30.43,North,7,2.0,4.0,74,0.00,,,0.00,0,Wunderground v.1.15,2013-03-01 18:08:00,
2013-03-01 10:13:00,60.7,52.4,30.43,North,0,0.0,2.0,74,0.00,,,0.00,0,Wunderground v.1.15,2013-03-01 18:13:00,
2013-03-01 10:19:00,61.2,52.8,30.43,NW,325,1.0,3.0,74,0.00,,,0.00,0,Wunderground v.1.15,2013-03-01 18:19:00,
2013-03-01 10:25:00,61.7,53.3,30.43,West,270,2.0,5.0,74,0.00,,,0.00,0,Wunderground v.1.15,2013-03-01 18:25:00,
2013-03-01 10:31:00,62.2,53.1,30.42,NNE,21,2.0,3.0,72,0.00,,,0.00,0,Wunderground v.1.15,2013-03-01 18:31:00,
2013-03-01 10:36:00,62.3,53.2,30.42,NW,319,4.0,4.0,72,0.00,,,0.00,0,Wunderground v.1.15,2013-03-01 18:36:00,
2013-03-01 10:42:00,62.9,53.7,30.42,West,277,5.0,5.0,72,0.00,,,0.00,0,Wunderground v.1.15,2013-03-01 18:42:00,
2013-03-01 10:48:00,63.4,53.8,30.42,WSW,252,3.0,5.0,71,0.00,,,0.00,0,Wunderground v.1.15,2013-03-01 18:48:00,
2013-03-01 10:54:00,63.9,55.1,30.42,SW,229,4.0,5.0,73,0.00,,,0.00,0,Wunderground v.1.15,2013-03-01 18:54:00,
2013-03-01 11:00:00,64.1,54.5,30.42,SW,229,2.0,2.0,71,0.00,,,0.00,0,Wunderground v.1.15,2013-03-01 19:00:00,
2013-03-01 11:08:00,64.6,54.6,30.42,West,271,4.0,6.0,70,0.00,,,0.00,0,Wunderground v.1.15,2013-03-01 19:08:00,
2013-03-01 11:14:00,64.9,54.9,30.42,WNW,288,3.0,6.0,70,0.00,,,0.00,0,Wunderground v.1.15,2013-03-01 19:14:00,
2013-03-01 11:19:00,65.1,55.8,30.41,West,264,3.0,6.0,72,0.00,,,0.00,0,Wunderground v.1.15,2013-03-01 19:19:00,
2013-03-01 11:25:00,65.4,55.7,30.41,West,278,6.0,6.0,71,0.00,,,0.00,0,Wunderground v.1.15,2013-03-01 19:25:00,
2013-03-01 11:30:00,65.6,55.9,30.41,WSW,246,2.0,2.0,71,0.00,,,0.00,0,Wunderground v.1.15,2013-03-01 19:30:00,
2013-03-01 11:36:00,65.7,55.6,30.41,NNW,336,4.0,6.0,70,0.00,,,0.00,0,Wunderground v.1.15,2013-03-01 19:36:00,
2013-03-01 11:41:00,65.8,56.1,30.41,West,270,2.0,3.0,71,0.00,,,0.00,0,Wunderground v.1.15,2013-03-01 19:41:00,
2013-03-01 11:47:00,66.2,56.1,30.40,NNW,327,3.0,5.0,70,0.00,,,0.00,0,Wunderground v.1.15,2013-03-01 19:47:00,
2013-03-01 11:53:00,66.2,56.1,30.40,West,270,3.0,4.0,70,0.00,,,0.00,0,Wunderground v.1.15,2013-03-01 19:53:00,
2013-03-01 11:58:00,66.4,56.7,30.40,NW,315,0.0,4.0,71,0.00,,,0.00,0,Wunderground v.1.15,2013-03-01 19:58:00,
2013-03-01 12:04:00,66.8,57.1,30.39,SSW,203,3.0,8.0,71,0.00,,,0.00,0,Wunderground v.1.15,2013-03-01 20:04:00,
2013-03-01 12:10:00,67.3,56.4,30.38,WSW,248,1.0,1.0,68,0.00,,,0.00,0,Wunderground v.1.15,2013-03-01 20:10:00,
2013-03-01 12:15:00,67.5,56.6,30.38,WNW,301,2.0,2.0,68,0.00,,,0.00,0,Wunderground v.1.15,2013-03-01 20:15:00,
2013-03-01 12:20:00,67.8,57.7,30.38,WSW,247,1.0,1.0,70,0.00,,,0.00,0,Wunderground v.1.15,2013-03-01 20:20:00,
2013-03-01 12:26:00,68.2,56.8,30.38,West,274,0.0,5.0,67,0.00,,,0.00,0,Wunderground v.1.15,2013-03-01 20:26:00,
2013-03-01 12:32:00,68.2,56.8,30.37,NNW,340,0.0,3.0,67,0.00,,,0.00,0,Wunderground v.1.15,2013-03-01 20:32:00,
2013-03-01 12:38:00,68.4,57.0,30.37,West,280,0.0,6.0,67,0.00,,,0.00,0,Wunderground v.1.15,2013-03-01 20:38:00,
2013-03-01 12:44:00,68.6,56.8,30.36,NW,324,1.0,3.0,66,0.00,,,0.00,0,Wunderground v.1.15,2013-03-01 20:44:00,
2013-03-01 12:50:00,68.6,56.8,30.36,West,270,1.0,1.0,66,0.00,,,0.00,0,Wunderground v.1.15,2013-03-01 20:50:00,
2013-03-01 12:56:00,68.5,57.1,30.36,West,259,1.0,7.0,67,0.00,,,0.00,0,Wunderground v.1.15,2013-03-01 20:56:00,
2013-03-01 13:02:00,68.6,56.8,30.35,North,0,0.0,8.0,66,0.00,,,0.00,0,Wunderground v.1.15,2013-03-01 21:02:00,
2013-03-01 13:08:00,69.2,57.8,30.35,WNW,292,5.0,8.0,67,0.00,,,0.00,0,Wunderground v.1.15,2013-03-01 21:08:00,
2013-03-01 13:14:00,69.6,57.3,30.35,NW,310,4.0,5.0,65,0.00,,,0.00,0,Wunderground v.1.15,2013-03-01 21:14:00,
2013-03-01 13:19:00,69.7,57.8,30.34,WNW,297,7.0,7.0,66,0.00,,,0.00,0,Wunderground v.1.15,2013-03-01 21:19:00,
2013-03-01 13:25:00,69.5,56.8,30.33,West,261,5.0,6.0,64,0.00,,,0.00,0,Wunderground v.1.15,2013-03-01 21:25:00,
2013-03-01 13:31:00,69.9,56.7,30.33,SW,221,1.0,5.0,63,0.00,,,0.00,0,Wunderground v.1.15,2013-03-01 21:31:00,
2013-03-01 13:37:00,69.9,56.7,30.33,WNW,302,1.0,6.0,63,0.00,,,0.00,0,Wunderground v.1.15,2013-03-01 21:37:00,
2013-03-01 13:43:00,70.0,56.8,30.32,NW,326,6.0,6.0,63,0.00,,,0.00,0,Wunderground v.1.15,2013-03-01 21:43:00,
2013-03-01 13:49:00,70.0,57.3,30.32,NNW,328,4.0,6.0,64,0.00,,,0.00,0,Wunderground v.1.15,2013-03-01 21:49:00,
2013-03-01 13:55:00,70.3,57.5,30.32,West,273,2.0,5.0,64,0.00,,,0.00,0,Wunderground v.1.15,2013-03-01 21:55:00,
2013-03-01 14:01:00,70.5,56.9,30.32,WNW,290,5.0,8.0,62,0.00,,,0.00,0,Wunderground v.1.15,2013-03-01 22:01:00,
2013-03-01 14:08:00,70.3,57.1,30.31,WNW,297,2.0,8.0,63,0.00,,,0.00,0,Wunderground v.1.15,2013-03-01 22:08:00,
2013-03-01 14:13:00,70.6,57.4,30.31,WSW,240,5.0,6.0,63,0.00,,,0.00,0,Wunderground v.1.15,2013-03-01 22:13:00,
2013-03-01 14:18:00,71.0,57.8,30.31,WNW,300,2.0,6.0,63,0.00,,,0.00,0,Wunderground v.1.15,2013-03-01 22:18:00,
2013-03-01 14:23:00,71.0,57.3,30.31,WSW,240,1.0,2.0,62,0.00,,,0.00,0,Wunderground v.1.15,2013-03-01 22:23:00,
2013-03-01 14:29:00,71.3,57.6,30.30,NW,304,1.0,3.0,62,0.00,,,0.00,0,Wunderground v.1.15,2013-03-01 22:29:00,
2013-03-01 14:34:00,71.6,57.9,30.30,WNW,292,4.0,4.0,62,0.00,,,0.00,0,Wunderground v.1.15,2013-03-01 22:34:00,
2013-03-01 14:39:00,71.7,58.4,30.30,SW,223,1.0,5.0,63,0.00,,,0.00,0,Wunderground v.1.15,2013-03-01 22:39:00,
2013-03-01 14:45:00,71.7,58.0,30.30,WSW,238,2.0,3.0,62,0.00,,,0.00,0,Wunderground v.1.15,2013-03-01 22:45:00,
2013-03-01 14:51:00,71.9,58.6,30.30,NW,306,1.0,2.0,63,0.00,,,0.00,0,Wunderground v.1.15,2013-03-01 22:51:00,
2013-03-01 14:56:00,72.0,58.3,30.30,NW,304,5.0,5.0,62,0.00,,,0.00,0,Wunderground v.1.15,2013-03-01 22:56:00,
2013-03-01 15:02:00,72.2,58.0,30.30,SSW,203,0.0,8.0,61,0.00,,,0.00,0,Wunderground v.1.15,2013-03-01 23:02:00,
2013-03-01 15:08:00,72.2,57.5,30.29,SSW,211,3.0,8.0,60,0.00,,,0.00,0,Wunderground v.1.15,2013-03-01 23:08:00,
2013-03-01 15:14:00,72.2,57.5,30.29,South,187,0.0,3.0,60,0.00,,,0.00,0,Wunderground v.1.15,2013-03-01 23:14:00,
2013-03-01 15:20:00,72.2,57.5,30.29,WSW,244,1.0,1.0,60,0.00,,,0.00,0,Wunderground v.1.15,2013-03-01 23:20:00,
2013-03-01 15:25:00,71.9,57.3,30.29,NW,317,0.0,2.0,60,0.00,,,0.00,0,Wunderground v.1.15,2013-03-01 23:25:00,
2013-03-01 15:31:00,71.9,58.6,30.29,SW,218,2.0,2.0,63,0.00,,,0.00,0,Wunderground v.1.15,2013-03-01 23:31:00,
2013-03-01 15:36:00,72.0,58.3,30.29,NW,311,4.0,4.0,62,0.00,,,0.00,0,Wunderground v.1.15,2013-03-01 23:36:00,
2013-03-01 15:42:00,71.8,58.1,30.29,WNW,297,4.0,4.0,62,0.00,,,0.00,0,Wunderground v.1.15,2013-03-01 23:42:00,
2013-03-01 15:47:00,71.8,57.6,30.29,SSW,194,2.0,4.0,61,0.00,,,0.00,0,Wunderground v.1.15,2013-03-01 23:47:00,
2013-03-01 15:54:00,71.8,57.6,30.28,WNW,299,1.0,3.0,61,0.00,,,0.00,0,Wunderground v.1.15,2013-03-01 23:54:00,
2013-03-01 15:59:00,71.7,57.5,30.28,WNW,295,0.0,3.0,61,0.00,,,0.00,0,Wunderground v.1.15,2013-03-01 23:59:00,
2013-03-01 16:04:00,71.6,57.9,30.28,WNW,299,2.0,7.0,62,0.00,,,0.00,0,Wunderground v.1.15,2013-03-02 00:04:00,
2013-03-01 16:09:00,71.5,57.8,30.28,West,265,1.0,7.0,62,0.00,,,0.00,0,Wunderground v.1.15,2013-03-02 00:09:00,
2013-03-01 16:15:00,71.3,58.1,30.28,NW,307,4.0,4.0,63,0.00,,,0.00,0,Wunderground v.1.15,2013-03-02 00:15:00,
2013-03-01 16:21:00,71.1,57.4,30.28,North,349,0.0,2.0,62,0.00,,,0.00,0,Wunderground v.1.15,2013-03-02 00:21:00,
2013-03-01 16:26:00,70.8,57.6,30.28,North,353,0.0,3.0,63,0.00,,,0.00,0,Wunderground v.1.15,2013-03-02 00:26:00,
2013-03-01 16:31:00,70.6,56.9,30.28,NW,314,2.0,2.0,62,0.00,,,0.00,0,Wunderground v.1.15,2013-03-02 00:31:00,
2013-03-01 16:37:00,70.5,57.3,30.27,NW,311,2.0,3.0,63,0.00,,,0.00,0,Wunderground v.1.15,2013-03-02 00:37:00,
2013-03-01 16:42:00,70.3,57.1,30.27,NW,319,3.0,3.0,63,0.00,,,0.00,0,Wunderground v.1.15,2013-03-02 00:42:00,
2013-03-01 16:47:00,70.2,57.0,30.27,NW,311,3.0,3.0,63,0.00,,,0.00,0,Wunderground v.1.15,2013-03-02 00:47:00,
2013-03-01 16:53:00,69.9,57.2,30.27,NW,325,2.0,2.0,64,0.00,,,0.00,0,Wunderground v.1.15,2013-03-02 00:53:00,
2013-03-01 16:59:00,69.7,57.0,30.27,NNW,329,0.0,2.0,64,0.00,,,0.00,0,Wunderground v.1.15,2013-03-02 00:59:00,
2013-03-01 17:04:00,69.7,57.0,30.27,NW,324,0.0,6.0,64,0.00,,,0.00,0,Wunderground v.1.15,2013-03-02 01:04:00,
2013-03-01 17:10:00,69.5,56.3,30.27,NW,324,0.0,0.0,63,0.00,,,0.00,0,Wunderground v.1.15,2013-03-02 01:10:00,
2013-03-01 17:16:00,69.4,56.3,30.26,NW,324,0.0,1.0,63,0.00,,,0.00,0,Wunderground v.1.15,2013-03-02 01:16:00,
2013-03-01 17:21:00,69.2,56.1,30.27,NW,325,0.0,0.0,63,0.00,,,0.00,0,Wunderground v.1.15,2013-03-02 01:21:00,
2013-03-01 17:27:00,69.0,56.3,30.27,NW,325,0.0,0.0,64,0.00,,,0.00,0,Wunderground v.1.15,2013-03-02 01:27:00,
2013-03-01 17:33:00,68.7,56.0,30.26,NW,324,0.0,0.0,64,0.00,,,0.00,0,Wunderground v.1.15,2013-03-02 01:33:00,
2013-03-01 17:39:00,68.5,55.8,30.26,NW,325,0.0,0.0,64,0.00,,,0.00,0,Wunderground v.1.15,2013-03-02 01:39:00,
2013-03-01 17:44:00,68.3,55.6,30.26,NW,325,0.0,0.0,64,0.00,,,0.00,0,Wunderground v.1.15,2013-03-02 01:44:00,
2013-03-01 17:49:00,68.1,55.9,30.26,NW,324,0.0,0.0,65,0.00,,,0.00,0,Wunderground v.1.15,2013-03-02 01:49:00,
2013-03-01 17:55:00,67.8,55.6,30.26,NW,324,0.0,0.0,65,0.00,,,0.00,0,Wunderground v.1.15,2013-03-02 01:55:00,
2013-03-01 18:01:00,67.6,55.4,30.27,NW,324,0.0,4.0,65,0.00,,,0.00,0,Wunderground v.1.15,2013-03-02 02:01:00,
2013-03-01 18:08:00,67.2,55.5,30.27,NW,324,0.0,4.0,66,0.00,,,0.00,0,Wunderground v.1.15,2013-03-02 02:08:00,
2013-03-01 18:13:00,66.9,55.2,30.27,NW,324,0.0,0.0,66,0.00,,,0.00,0,Wunderground v.1.15,2013-03-02 02:13:00,
2013-03-01 18:19:00,66.2,55.3,30.27,North,6,0.0,0.0,68,0.00,,,0.00,0,Wunderground v.1.15,2013-03-02 02:19:00,
2013-03-01 18:25:00,65.4,55.4,30.27,North,6,0.0,0.0,70,0.00,,,0.00,0,Wunderground v.1.15,2013-03-02 02:25:00,
2013-03-01 18:31:00,64.7,55.5,30.27,NE,39,0.0,0.0,72,0.00,,,0.00,0,Wunderground v.1.15,2013-03-02 02:31:00,
2013-03-01 18:36:00,64.4,55.2,30.27,ENE,64,0.0,0.0,72,0.00,,,0.00,0,Wunderground v.1.15,2013-03-02 02:36:00,
2013-03-01 18:42:00,64.2,55.4,30.27,ENE,64,0.0,0.0,73,0.00,,,0.00,0,Wunderground v.1.15,2013-03-02 02:42:00,
2013-03-01 18:47:00,63.6,54.8,30.27,ENE,64,0.0,0.0,73,0.00,,,0.00,0,Wunderground v.1.15,2013-03-02 02:47:00,
2013-03-01 18:52:00,63.2,54.8,30.27,ENE,64,0.0,0.0,74,0.00,,,0.00,0,Wunderground v.1.15,2013-03-02 02:52:00,
2013-03-01 18:58:00,62.6,54.6,30.27,ENE,64,0.0,0.0,75,0.00,,,0.00,0,Wunderground v.1.15,2013-03-02 02:58:00,
2013-03-01 19:03:00,61.8,54.5,30.27,ENE,64,0.0,1.0,77,0.00,,,0.00,0,Wunderground v.1.15,2013-03-02 03:03:00,
2013-03-01 19:08:00,61.0,54.1,30.27,ENE,64,0.0,1.0,78,0.00,,,0.00,0,Wunderground v.1.15,2013-03-02 03:08:00,
2013-03-01 19:14:00,60.7,54.1,30.27,ENE,64,0.0,0.0,79,0.00,,,0.00,0,Wunderground v.1.15,2013-03-02 03:14:00,
2013-03-01 19:19:00,59.8,53.6,30.27,ENE,64,0.0,0.0,80,0.00,,,0.00,0,Wunderground v.1.15,2013-03-02 03:19:00,
2013-03-01 19:25:00,59.5,53.7,30.27,ENE,64,0.0,0.0,81,0.00,,,0.00,0,Wunderground v.1.15,2013-03-02 03:25:00,
2013-03-01 19:31:00,58.7,53.2,30.27,ENE,64,0.0,0.0,82,0.00,,,0.00,0,Wunderground v.1.15,2013-03-02 03:31:00,
2013-03-01 19:36:00,58.3,53.2,30.27,ENE,75,0.0,0.0,83,0.00,,,0.00,0,Wunderground v.1.15,2013-03-02 03:36:00,
2013-03-01 19:42:00,58.0,53.2,30.27,ENE,75,0.0,0.0,84,0.00,,,0.00,0,Wunderground v.1.15,2013-03-02 03:42:00,
2013-03-01 19:48:00,57.7,52.6,30.27,ENE,75,0.0,0.0,83,0.00,,,0.00,0,Wunderground v.1.15,2013-03-02 03:48:00,
2013-03-01 19:53:00,57.4,52.9,30.27,ENE,75,0.0,0.0,85,0.00,,,0.00,0,Wunderground v.1.15,2013-03-02 03:53:00,
2013-03-01 19:58:00,57.4,52.6,30.27,ENE,75,0.0,0.0,84,0.00,,,0.00,0,Wunderground v.1.15,2013-03-02 03:58:00,
2013-03-01 20:04:00,57.2,53.0,30.27,ENE,75,0.0,1.0,86,0.00,,,0.00,0,Wunderground v.1.15,2013-03-02 04:04:00,
2013-03-01 20:09:00,57.2,52.7,30.27,ESE,104,1.0,1.0,85,0.00,,,0.00,0,Wunderground v.1.15,2013-03-02 04:09:00,
2013-03-01 20:15:00,57.4,52.9,30.27,ESE,115,0.0,1.0,85,0.00,,,0.00,0,Wunderground v.1.15,2013-03-02 04:15:00,
2013-03-01 20:20:00,57.5,52.7,30.27,ESE,120,2.0,2.0,84,0.00,,,0.00,0,Wunderground v.1.15,2013-03-02 04:20:00,
2013-03-01 20:26:00,57.6,52.5,30.27,ESE,120,1.0,2.0,83,0.00,,,0.00,0,Wunderground v.1.15,2013-03-02 04:26:00,
2013-03-01 20:31:00,57.5,52.4,30.27,ESE,104,1.0,1.0,83,0.00,,,0.00,0,Wunderground v.1.15,2013-03-02 04:31:00,
2013-03-01 20:37:00,57.4,52.6,30.27,ESE,115,0.0,2.0,84,0.00,,,0.00,0,Wunderground v.1.15,2013-03-02 04:37:00,
2013-03-01 20:43:00,57.5,52.7,30.27,ESE,115,0.0,0.0,84,0.00,,,0.00,0,Wunderground v.1.15,2013-03-02 04:43:00,
2013-03-01 20:49:00,57.2,52.4,30.28,ESE,116,0.0,0.0,84,0.00,,,0.00,0,Wunderground v.1.15,2013-03-02 04:49:00,
2013-03-01 20:54:00,56.7,52.2,30.28,ESE,109,1.0,1.0,85,0.00,,,0.00,0,Wunderground v.1.15,2013-03-02 04:54:00,
2013-03-01 21:00:00,56.1,52.0,30.28,NE,55,0.0,0.0,86,0.00,,,0.00,0,Wunderground v.1.15,2013-03-02 05:00:00,
2013-03-01 21:02:00,56.1,52.0,30.28,East,79,0.0,1.0,86,0.00,,,0.00,0,Wunderground v.1.15,2013-03-02 05:02:00,
2013-03-01 21:03:00,56.1,52.0,30.28,East,79,0.0,1.0,86,0.00,,,0.00,0,Wunderground v.1.15,2013-03-02 05:03:00,
2013-03-01 21:04:00,56.0,51.9,30.28,East,79,1.0,1.0,86,0.00,,,0.00,0,Wunderground v.1.15,2013-03-02 05:04:00,
2013-03-01 21:09:00,56.0,52.2,30.28,ENE,66,0.0,1.0,87,0.00,,,0.00,0,Wunderground v.1.15,2013-03-02 05:09:00,
2013-03-01 21:15:00,56.2,52.1,30.28,ENE,66,0.0,0.0,86,0.00,,,0.00,0,Wunderground v.1.15,2013-03-02 05:15:00,
2013-03-01 21:21:00,56.1,52.0,30.29,NE,50,0.0,0.0,86,0.00,,,0.00,0,Wunderground v.1.15,2013-03-02 05:21:00,
2013-03-01 21:26:00,55.7,51.9,30.29,NE,50,0.0,0.0,87,0.00,,,0.00,0,Wunderground v.1.15,2013-03-02 05:26:00,
2013-03-01 21:31:00,55.8,52.0,30.29,NE,50,0.0,0.0,87,0.00,,,0.00,0,Wunderground v.1.15,2013-03-02 05:31:00,
2013-03-01 21:37:00,55.9,52.1,30.28,NE,50,0.0,0.0,87,0.00,,,0.00,0,Wunderground v.1.15,2013-03-02 05:37:00,
2013-03-01 21:43:00,55.7,52.2,30.29,NE,50,0.0,0.0,88,0.00,,,0.00,0,Wunderground v.1.15,2013-03-02 05:43:00,
2013-03-01 21:48:00,55.6,52.1,30.29,NE,50,0.0,0.0,88,0.00,,,0.00,0,Wunderground v.1.15,2013-03-02 05:48:00,
2013-03-01 21:54:00,55.5,51.7,30.29,NE,50,0.0,0.0,87,0.00,,,0.00,0,Wunderground v.1.15,2013-03-02 05:54:00,
2013-03-01 22:00:00,55.1,51.9,30.28,NE,50,0.0,0.0,89,0.00,,,0.00,0,Wunderground v.1.15,2013-03-02 06:00:00,
2013-03-01 22:07:00,55.2,52.0,30.28,NE,50,0.0,3.0,89,0.00,,,0.00,0,Wunderground v.1.15,2013-03-02 06:07:00,
2013-03-01 22:13:00,55.3,52.1,30.28,ENE,59,0.0,0.0,89,0.00,,,0.00,0,Wunderground v.1.15,2013-03-02 06:13:00,
2013-03-01 22:19:00,55.4,52.2,30.28,ESE,104,1.0,1.0,89,0.00,,,0.00,0,Wunderground v.1.15,2013-03-02 06:19:00,
2013-03-01 22:25:00,55.4,52.5,30.28,ESE,107,0.0,2.0,90,0.00,,,0.00,0,Wunderground v.1.15,2013-03-02 06:25:00,
2013-03-01 22:31:00,55.2,52.0,30.28,East,101,0.0,0.0,89,0.00,,,0.00,0,Wunderground v.1.15,2013-03-02 06:31:00,
2013-03-01 22:37:00,54.8,51.9,30.28,ESE,106,0.0,2.0,90,0.00,,,0.00,0,Wunderground v.1.15,2013-03-02 06:37:00,
2013-03-01 22:43:00,54.8,51.9,30.28,East,85,0.0,1.0,90,0.00,,,0.00,0,Wunderground v.1.15,2013-03-02 06:43:00,
2013-03-01 22:49:00,54.8,52.2,30.28,East,85,0.0,1.0,91,0.00,,,0.00,0,Wunderground v.1.15,2013-03-02 06:49:00,
2013-03-01 22:55:00,55.0,52.1,30.28,ESE,107,1.0,1.0,90,0.00,,,0.00,0,Wunderground v.1.15,2013-03-02 06:55:00,
2013-03-01 23:00:00,55.0,52.4,30.28,ESE,117,1.0,1.0,91,0.00,,,0.00,0,Wunderground v.1.15,2013-03-02 07:00:00,
2013-03-01 23:08:00,55.1,52.2,30.28,ESE,119,0.0,1.0,90,0.00,,,0.00,0,Wunderground v.1.15,2013-03-02 07:08:00,
2013-03-01 23:14:00,55.1,52.5,30.28,ESE,123,2.0,2.0,91,0.00,,,0.00,0,Wunderground v.1.15,2013-03-02 07:14:00,
2013-03-01 23:19:00,55.2,52.6,30.28,ESE,112,4.0,4.0,91,0.00,,,0.00,0,Wunderground v.1.15,2013-03-02 07:19:00,
2013-03-01 23:25:00,55.4,52.5,30.28,ESE,123,1.0,5.0,90,0.00,,,0.00,0,Wunderground v.1.15,2013-03-02 07:25:00,
2013-03-01 23:30:00,55.5,52.6,30.28,ESE,115,2.0,2.0,90,0.00,,,0.00,0,Wunderground v.1.15,2013-03-02 07:30:00,
2013-03-01 23:36:00,55.4,52.2,30.28,ESE,106,1.0,3.0,89,0.00,,,0.00,0,Wunderground v.1.15,2013-03-02 07:36:00,
2013-03-01 23:42:00,55.3,52.1,30.28,ESE,113,2.0,2.0,89,0.00,,,0.00,0,Wunderground v.1.15,2013-03-02 07:42:00,
2013-03-01 23:48:00,55.3,52.4,30.28,ESE,106,1.0,3.0,90,0.00,,,0.00,0,Wunderground v.1.15,2013-03-02 07:48:00,
2013-03-01 23:53:00,55.2,52.3,30.28,ESE,106,2.0,2.0,90,0.00,,,0.00,0,Wunderground v.1.15,2013-03-02 07:53:00,
2013-03-01 23:59:00,55.1,52.2,30.28,ESE,106,0.0,2.0,90,0.00,,,0.00,0,Wunderground v.1.15,2013-03-02 07:59:00,